Погода в Алсте

Бельгия     50°56′17″N   4°01′34″E
темп.,
°C
ветер,
м/с
пор.,
м/с
влажн.,
%
обл.,
%
осадки,
мм/ч
давл.,
гПа
погр.,
м
28 сентября, вт
вт2823:00+11юз4118745 0.0 1021275
02:00+10юз499029 0.0 1022204
05:00+9ююз4894100 0.0 1023153
08:00+9ююз3692100 0.0 1023110
11:00+13ю4570100 0.0 1023385
14:00+17ю4551100 0.0 10221045
17:00+18ю555597 0.0 10201399
20:00+13ю3677100 0.1 1019110
29 сентября, ср
ср2923:00+12ююв4979100 0.0 1019213
02:00+13ю5127182 0.0 1017301
05:00+12ю6146998 0.1 1015385
08:00+11ююз71591100 0.8 1014703
11:00+11з8138463 1.9 10171087
14:00+15з9125217 2.4 10191919
17:00+14зсз1014515 0.1 10211778
20:00+11з713524 0.1 10231005
30 сентября, чт
чт3023:00+10зюз612610 0.0 1025621
02:00+9зюз613680 0.0 1025536
05:00+7зюз612742 0.0 1026346
08:00+7юз51176100 0.0 1027283
11:00+12юз61063100 0.0 1027795
14:00+15юз894797 0.0 10251589
17:00+13ююз71254100 0.0 10241183
20:00+13ююз71254100 0.0 1023955
1 октября, пт
пт123:00+14ююз81549100 0.0 1021786
02:00+14ююз91750100 0.0 1019626
05:00+13ююз91653100 0.0 1017660
08:00+12ююз9175999 0.0 1016569
11:00+13ююз101761100 0.0 1015748
14:00+16ююз101663100 0.1 10131142
17:00+14юз81590100 3.9 10121029
20:00+12юз61290100 6.1 1014541
2 октября, сб
сб223:00+11юз4992100 0.1 1015299
02:00+9юз4890100 0.1 1014206
05:00+7юз379158 0.0 1014165
08:00+7ююз379429 0.0 1014118
11:00+12ююз5774100 0.0 1014525
14:00+15ююз5754100 0.0 10121482
17:00+12ююз5977100 0.1 1010651
20:00+11ю41093100 1.3 1007453